sat.trackr.live / text

‹ back to catalog

STARLINK-34822

NORAD 65086 · 2025-167J

PAYLOAD ACTIVE UNKNOWN

§ Identity

Operator
Country
US
Launch date
2025-08-04
Launch site
AFETR
Launch vehicle
Mass (kg)
RCS (m²)

Purposes: comms

External: N2YO · Heavens-Above · Gunter

§ Orbital elements

Epoch: 2026-05-24T23:17:25.476000Z

Period
94.11 min
Inclination
53.1591°
Eccentricity
0.0001352
Mean motion
15.30190010 rev/d
Perigee alt
474.3 km
Apogee alt
476.2 km
Semi-major
6,853.4 km
B*
6.0656e-4
RAAN
32.7131°
Arg perigee
94.2630°
Mean anomaly
265.8525°
Rev number
4,515

§ Raw data

STARLINK-348221 65086U 25167J   26144.97043375  .00017643  00000+0  60656-3 0  99972 65086  53.1591  32.7131 0001352  94.2630 265.8525 15.30190010 45151

JSON: /api/v1/satellites/65086 · /tle

For live sub-satellite position, see the globe view (requires WebGL).

§ Visibility from observer

Set your observer location to see the next 7 days of passes ≥ 10°. The values pass through the URL so the page stays shareable.

No JS? Fill the form by hand. The geolocation button needs JavaScript.